GCR103 LIRP-LATI

Flight info

Callsign GCR103
Flight time 0h 55m
Altitude 35000
Route GINAR DCT OSMOX DCT VABMO DCT BAGNO DCT SPL DCT PETAK
Aircraft R722/M-SDFGRWY/S

Departure

Time 2026-04-29 10:17
Airport Pisa International Airport (LIRP)

Arrival

Time 2026-04-29 11:13
Airport Tirana International Airport Mother Teresa (LATI)
Time Latitude Longitude Altitude Speed Heading
2026-04-29 10:04 43.69122 10.40628 18 ft 0 kts 41°
2026-04-29 10:13 43.69165 10.40660 18 ft 12 kts 23°
2026-04-29 10:13 43.69262 10.40666 18 ft 16 kts 343°
2026-04-29 10:13 43.69354 10.40605 19 ft 16 kts 327°
2026-04-29 10:14 43.69363 10.40475 16 ft 16 kts 233°
2026-04-29 10:14 43.69279 10.40361 18 ft 18 kts 219°
2026-04-29 10:14 43.69137 10.40210 18 ft 33 kts 217°
2026-04-29 10:14 43.68921 10.39994 18 ft 46 kts 216°
2026-04-29 10:15 43.68640 10.39705 16 ft 56 kts 216°
2026-04-29 10:15 43.68323 10.39371 17 ft 62 kts 218°
2026-04-29 10:15 43.67977 10.39020 15 ft 64 kts 216°
2026-04-29 10:15 43.67632 10.38645 17 ft 62 kts 219°
2026-04-29 10:16 43.67406 10.38396 16 ft 10 kts 204°
2026-04-29 10:16 43.67385 10.38414 16 ft 1 kts 62°
2026-04-29 10:16 43.67461 10.38494 16 ft 45 kts 35°
2026-04-29 10:16 43.67948 10.38983 16 ft 129 kts 36°
2026-04-29 10:17 43.68804 10.39878 172 ft 179 kts 41°
2026-04-29 10:17 43.69809 10.40972 749 ft 193 kts 41°
2026-04-29 10:17 43.70713 10.42105 1981 ft 174 kts 45°
2026-04-29 10:17 43.71669 10.42883 2477 ft 158 kts 23°
2026-04-29 10:18 43.72718 10.43320 2042 ft 171 kts 12°
2026-04-29 10:18 43.73896 10.43380 1692 ft 171 kts 356°
2026-04-29 10:18 43.74963 10.43100 1482 ft 166 kts 344°
2026-04-29 10:18 43.76102 10.42349 895 ft 214 kts 324°
2026-04-29 10:19 43.77112 10.40971 2364 ft 188 kts 307°
2026-04-29 10:19 43.77676 10.39666 4143 ft 149 kts 297°
2026-04-29 10:19 43.78074 10.38187 4325 ft 193 kts 283°
2026-04-29 10:19 43.78319 10.36243 4668 ft 223 kts 279°
2026-04-29 10:20 43.78581 10.34137 5313 ft 238 kts 282°
2026-04-29 10:20 43.78912 10.31859 5984 ft 253 kts 282°
2026-04-29 10:20 43.79223 10.29569 6901 ft 253 kts 282°
2026-04-29 10:20 43.79521 10.27214 7764 ft 257 kts 278°
2026-04-29 10:21 43.79397 10.24800 8570 ft 259 kts 255°
2026-04-29 10:21 43.78692 10.22607 9384 ft 262 kts 235°
2026-04-29 10:21 43.77444 10.20858 10170 ft 263 kts 216°
2026-04-29 10:21 43.75851 10.19797 10963 ft 265 kts 197°
2026-04-29 10:22 43.74088 10.19552 11693 ft 269 kts 179°
2026-04-29 10:22 43.72281 10.20142 12384 ft 277 kts 159°
2026-04-29 10:22 43.70722 10.21552 13046 ft 285 kts 139°
2026-04-29 10:22 43.69558 10.23728 13714 ft 291 kts 118°
2026-04-29 10:23 43.68865 10.26312 14381 ft 296 kts 108°
2026-04-29 10:23 43.68429 10.28981 15010 ft 299 kts 104°
2026-04-29 10:23 43.68025 10.31761 15622 ft 303 kts 105°
2026-04-29 10:23 43.67524 10.34604 16261 ft 307 kts 108°
2026-04-29 10:24 43.66992 10.37345 16829 ft 310 kts 108°
2026-04-29 10:24 43.66551 10.40215 17350 ft 316 kts 101°
2026-04-29 10:24 43.66335 10.43220 17779 ft 325 kts 97°
2026-04-29 10:24 43.66185 10.46218 18219 ft 331 kts 98°
2026-04-29 10:25 43.65938 10.49330 18691 ft 335 kts 101°
2026-04-29 10:25 43.65643 10.52421 19129 ft 341 kts 100°
2026-04-29 10:25 43.65372 10.55610 19563 ft 346 kts 99°
2026-04-29 10:25 43.65128 10.58810 19993 ft 352 kts 99°
2026-04-29 10:26 43.64879 10.61941 20417 ft 357 kts 99°
2026-04-29 10:26 43.64581 10.65415 20878 ft 363 kts 99°
2026-04-29 10:26 43.64288 10.68857 21320 ft 369 kts 99°
2026-04-29 10:26 43.64106 10.72269 21694 ft 377 kts 89°
2026-04-29 10:27 43.65571 10.79112 22425 ft 388 kts 59°
2026-04-29 10:27 43.67140 10.81916 22771 ft 387 kts 44°
2026-04-29 10:27 43.69047 10.84438 23246 ft 387 kts 53°
2026-04-29 10:28 43.70261 10.87590 23835 ft 389 kts 70°
2026-04-29 10:28 43.71031 10.91029 24329 ft 392 kts 77°
2026-04-29 10:28 43.71632 10.94651 24793 ft 397 kts 78°
2026-04-29 10:28 43.72315 10.98251 25200 ft 403 kts 74°
2026-04-29 10:29 43.73144 11.01894 25626 ft 408 kts 73°
2026-04-29 10:29 43.73947 11.05558 26087 ft 414 kts 75°
2026-04-29 10:29 43.74689 11.09330 26531 ft 419 kts 76°
2026-04-29 10:29 43.75439 11.13150 26966 ft 425 kts 75°
2026-04-29 10:30 43.78172 11.26368 28436 ft 439 kts 75°
2026-04-29 10:30 43.81505 11.42742 30187 ft 454 kts 75°
2026-04-29 10:30 43.84857 11.59342 31906 ft 464 kts 75°
2026-04-29 10:30 43.88204 11.76073 33587 ft 471 kts 75°
2026-04-29 10:31 43.88070 11.93641 35496 ft 470 kts 95°
2026-04-29 10:31 43.86821 12.11723 36092 ft 499 kts 96°
2026-04-29 10:31 43.85481 12.30802 36065 ft 519 kts 97°
2026-04-29 10:32 43.82614 12.70018 36068 ft 515 kts 98°
2026-04-29 10:32 43.79648 13.08569 36062 ft 516 kts 98°
2026-04-29 10:33 43.76499 13.47671 36073 ft 520 kts 98°
2026-04-29 10:33 43.73236 13.86470 36067 ft 523 kts 98°
2026-04-29 10:34 43.69834 14.25362 36076 ft 523 kts 98°
2026-04-29 10:34 43.66299 14.64222 36074 ft 523 kts 98°
2026-04-29 10:35 43.64493 14.83493 36065 ft 522 kts 99°
2026-04-29 10:35 43.63582 14.93109 36070 ft 522 kts 99°
2026-04-29 10:36 43.62805 15.01215 36061 ft 523 kts 98°
2026-04-29 10:36 43.61721 15.12428 36069 ft 523 kts 99°
2026-04-29 10:37 43.59178 15.38313 36069 ft 525 kts 99°
2026-04-29 10:37 43.55215 15.77491 36076 ft 527 kts 99°
2026-04-29 10:38 43.51210 16.15725 36066 ft 530 kts 99°
2026-04-29 10:38 43.47202 16.34539 36186 ft 529 kts 128°
2026-04-29 10:38 43.38920 16.49936 36075 ft 526 kts 131°
2026-04-29 10:39 43.21981 16.80911 36127 ft 525 kts 131°
2026-04-29 10:39 43.06622 17.08570 36115 ft 524 kts 131°
2026-04-29 10:40 43.02284 17.16298 36102 ft 523 kts 131°
2026-04-29 10:40 42.97927 17.24091 36099 ft 523 kts 130°
2026-04-29 10:41 42.93533 17.31909 36090 ft 524 kts 131°
2026-04-29 10:41 42.89192 17.39610 36102 ft 523 kts 131°
2026-04-29 10:42 42.84790 17.47164 36077 ft 523 kts 131°
2026-04-29 10:42 42.80492 17.54931 36091 ft 522 kts 131°
2026-04-29 10:43 42.76102 17.62557 36081 ft 522 kts 131°
2026-04-29 10:43 42.72497 17.68943 36081 ft 522 kts 130°
2026-04-29 10:44 42.67393 17.77896 36094 ft 520 kts 131°
2026-04-29 10:44 42.63790 17.84184 35977 ft 524 kts 131°
2026-04-29 10:44 42.61639 17.87977 35730 ft 502 kts 131°
2026-04-29 10:45 42.58967 17.92664 35368 ft 471 kts 131°
2026-04-29 10:45 42.57020 17.96039 35067 ft 451 kts 131°
2026-04-29 10:45 42.55759 17.98227 34874 ft 439 kts 131°
2026-04-29 10:45 42.53372 18.02390 34492 ft 430 kts 131°
2026-04-29 10:46 42.52181 18.04462 34316 ft 428 kts 131°
2026-04-29 10:46 42.50394 18.07556 34054 ft 424 kts 131°
2026-04-29 10:46 42.48677 18.10527 33806 ft 422 kts 131°
2026-04-29 10:46 42.46906 18.13596 33382 ft 422 kts 131°
2026-04-29 10:47 42.45141 18.16651 32917 ft 419 kts 131°
2026-04-29 10:47 42.43420 18.19625 32457 ft 417 kts 131°
2026-04-29 10:47 42.41677 18.22634 31985 ft 413 kts 131°
2026-04-29 10:47 42.39975 18.25570 31528 ft 410 kts 131°
2026-04-29 10:48 42.38257 18.28532 31055 ft 407 kts 131°
2026-04-29 10:48 42.36551 18.31469 30585 ft 404 kts 131°
2026-04-29 10:48 42.34851 18.34392 30115 ft 401 kts 131°
2026-04-29 10:48 42.33167 18.37282 29639 ft 397 kts 131°
2026-04-29 10:49 42.31541 18.40077 29180 ft 395 kts 131°
2026-04-29 10:49 42.29883 18.42927 28717 ft 392 kts 131°
2026-04-29 10:49 42.28281 18.45667 28251 ft 390 kts 131°
2026-04-29 10:49 42.26661 18.48431 27700 ft 388 kts 131°
2026-04-29 10:50 42.25029 18.51221 27134 ft 385 kts 131°
2026-04-29 10:50 42.23444 18.53937 26576 ft 382 kts 131°
2026-04-29 10:50 42.21839 18.56677 26009 ft 379 kts 131°
2026-04-29 10:50 42.20251 18.59381 25443 ft 375 kts 131°
2026-04-29 10:51 42.18706 18.62015 24887 ft 372 kts 131°
2026-04-29 10:51 42.17159 18.64651 24322 ft 369 kts 131°
2026-04-29 10:51 42.15635 18.67242 23766 ft 366 kts 131°
2026-04-29 10:51 42.14110 18.69831 23204 ft 363 kts 131°
2026-04-29 10:52 42.12578 18.72433 22637 ft 360 kts 131°
2026-04-29 10:52 42.11072 18.74987 22076 ft 357 kts 131°
2026-04-29 10:52 42.09569 18.77535 21505 ft 353 kts 131°
2026-04-29 10:52 42.08112 18.80007 20948 ft 349 kts 132°
2026-04-29 10:53 42.06658 18.82468 20397 ft 346 kts 131°
2026-04-29 10:53 42.05196 18.84937 19832 ft 343 kts 132°
2026-04-29 10:53 42.03780 18.87323 19268 ft 341 kts 132°
2026-04-29 10:53 42.02339 18.89760 18695 ft 337 kts 132°
2026-04-29 10:54 42.00970 18.92075 18155 ft 334 kts 132°
2026-04-29 10:54 41.99513 18.94531 17573 ft 331 kts 132°
2026-04-29 10:54 41.98111 18.96885 17002 ft 326 kts 131°
2026-04-29 10:54 41.96767 18.99147 16443 ft 321 kts 131°
2026-04-29 10:55 41.95418 19.01419 15885 ft 317 kts 131°
2026-04-29 10:55 41.94071 19.03683 15318 ft 313 kts 131°
2026-04-29 10:55 41.92782 19.05846 14754 ft 310 kts 131°
2026-04-29 10:55 41.91466 19.08048 14186 ft 306 kts 131°
2026-04-29 10:56 41.90163 19.10232 13616 ft 303 kts 131°
2026-04-29 10:56 41.88883 19.12382 13047 ft 299 kts 131°
2026-04-29 10:56 41.87618 19.14502 12485 ft 296 kts 131°
2026-04-29 10:56 41.86366 19.16595 11918 ft 293 kts 131°
2026-04-29 10:57 41.85119 19.18679 11347 ft 289 kts 131°
2026-04-29 10:57 41.83898 19.20724 10790 ft 286 kts 131°
2026-04-29 10:57 41.82708 19.22709 10228 ft 283 kts 131°
2026-04-29 10:57 41.81496 19.24723 9655 ft 281 kts 131°
2026-04-29 10:58 41.80327 19.26673 9097 ft 277 kts 131°
2026-04-29 10:58 41.79212 19.28535 8554 ft 274 kts 131°
2026-04-29 10:58 41.78017 19.30527 7982 ft 271 kts 131°
2026-04-29 10:58 41.76878 19.32416 7405 ft 266 kts 131°
2026-04-29 10:59 41.75778 19.34252 6864 ft 262 kts 130°
2026-04-29 10:59 41.74668 19.36099 6287 ft 258 kts 131°
2026-04-29 10:59 41.73606 19.37859 5737 ft 256 kts 131°
2026-04-29 10:59 41.72504 19.39684 5157 ft 253 kts 130°
2026-04-29 11:00 41.71427 19.41479 4596 ft 250 kts 131°
2026-04-29 11:00 41.70379 19.43217 4043 ft 248 kts 131°
2026-04-29 11:00 41.69319 19.44966 3506 ft 244 kts 131°
2026-04-29 11:00 41.68304 19.46660 3247 ft 230 kts 130°
2026-04-29 11:01 41.67368 19.48218 3093 ft 217 kts 130°
2026-04-29 11:01 41.66452 19.49737 2934 ft 209 kts 130°
2026-04-29 11:01 41.65611 19.51133 2772 ft 198 kts 130°
2026-04-29 11:01 41.64768 19.52528 2616 ft 184 kts 130°
2026-04-29 11:02 41.64001 19.53794 2435 ft 176 kts 131°
2026-04-29 11:02 41.63278 19.54997 2421 ft 171 kts 131°
2026-04-29 11:02 41.62546 19.56198 2549 ft 171 kts 131°
2026-04-29 11:02 41.61815 19.57411 2680 ft 171 kts 131°
2026-04-29 11:03 41.61096 19.58591 2814 ft 172 kts 132°
2026-04-29 11:03 41.60333 19.59795 2954 ft 173 kts 132°
2026-04-29 11:03 41.59579 19.60964 3083 ft 173 kts 133°
2026-04-29 11:03 41.58798 19.62137 3189 ft 172 kts 134°
2026-04-29 11:04 41.58017 19.63312 3332 ft 175 kts 133°
2026-04-29 11:04 41.57254 19.64472 3457 ft 174 kts 133°
2026-04-29 11:04 41.56469 19.65630 3560 ft 175 kts 134°
2026-04-29 11:04 41.55634 19.66821 3695 ft 176 kts 135°
2026-04-29 11:05 41.54812 19.67948 3811 ft 176 kts 136°
2026-04-29 11:05 41.53963 19.69083 3942 ft 176 kts 137°
2026-04-29 11:05 41.53108 19.70188 4064 ft 177 kts 138°
2026-04-29 11:05 41.52210 19.71303 4180 ft 176 kts 139°
2026-04-29 11:06 41.51299 19.72397 4302 ft 177 kts 140°
2026-04-29 11:06 41.50397 19.73444 4427 ft 177 kts 141°
2026-04-29 11:06 41.49486 19.74480 4546 ft 178 kts 142°
2026-04-29 11:06 41.48396 19.75044 4685 ft 177 kts 184°
2026-04-29 11:07 41.47198 19.74734 4879 ft 177 kts 200°
2026-04-29 11:07 41.46075 19.74159 5109 ft 174 kts 202°
2026-04-29 11:07 41.44954 19.73615 5077 ft 182 kts 200°
2026-04-29 11:07 41.43784 19.73113 4839 ft 179 kts 199°
2026-04-29 11:08 41.42642 19.72622 4592 ft 178 kts 199°
2026-04-29 11:08 41.41485 19.72144 4350 ft 177 kts 198°
2026-04-29 11:08 41.40326 19.71696 4098 ft 176 kts 197°
2026-04-29 11:08 41.39192 19.71285 3839 ft 174 kts 196°
2026-04-29 11:09 41.38038 19.70882 3578 ft 174 kts 196°
2026-04-29 11:09 41.36902 19.70486 3341 ft 174 kts 195°
2026-04-29 11:09 41.35745 19.70105 3109 ft 173 kts 194°
2026-04-29 11:09 41.34596 19.69764 2849 ft 172 kts 191°
2026-04-29 11:10 41.33449 19.69586 2671 ft 173 kts 173°
2026-04-29 11:10 41.32509 19.70421 2455 ft 172 kts 118°
2026-04-29 11:10 41.32503 19.71864 2451 ft 167 kts 70°
2026-04-29 11:10 41.33290 19.72816 2906 ft 157 kts 19°
2026-04-29 11:11 41.34412 19.73005 2718 ft 166 kts
2026-04-29 11:11 41.35522 19.72860 2225 ft 163 kts 356°
2026-04-29 11:11 41.36607 19.72690 1687 ft 157 kts 355°
2026-04-29 11:11 41.37653 19.72537 1065 ft 155 kts 358°
2026-04-29 11:12 41.38708 19.72419 511 ft 151 kts 355°
2026-04-29 11:12 41.39658 19.72290 238 ft 142 kts 355°
2026-04-29 11:12 41.40597 19.72170 136 ft 122 kts 356°
2026-04-29 11:12 41.41218 19.72091 131 ft 61 kts 353°
2026-04-29 11:13 41.41551 19.72042 128 ft 46 kts 354°
2026-04-29 11:13 41.41795 19.72010 122 ft 25 kts 355°
2026-04-29 11:13 41.41874 19.71942 126 ft 11 kts 271°
2026-04-29 11:13 41.41869 19.71763 127 ft 28 kts 264°
2026-04-29 11:14 41.41867 19.71550 127 ft 1 kts 326°
2026-04-29 11:14 41.41873 19.71547 126 ft 6 kts 348°
2026-04-29 11:14 41.41897 19.71535 126 ft 0 kts 310°
2026-04-29 11:14 41.41901 19.71522 126 ft 0 kts 279°